Zurück zum Katalog

NIMBUS 2 DEB

AktivSSO
NORAD 59973·DEBRIS·🇺🇸 United States

Gestartet May 15, 1966 von Vandenberg Space Force Base

Loading…

Nächste Überflüge (nächste 24 Stunden)

TLE

AktuellSource: Space-Track

Epoche: Sep 11, 2026, 04:40 UTC

1 59973U 66040CC  26254.19510733  .00001113  00000-0  20214-2 0  9994
2 59973 100.2559  66.6623 0045920 350.3178   9.7062 13.42990060427598

Verfolge NIMBUS 2 DEB in Echtzeit mit AllMySat

Download on the App Store